Weather reports worldwide

Advertisment
Kinbrace, United Kingdom (99016): temperature & dewpoint: 09.09.2019 09:00:00 - 15.09.2019 09:00:00 (BST)Kinbrace, United Kingdom (99016): wind speed: 09.09.2019 09:00:00 - 15.09.2019 09:00:00 (BST)Kinbrace, United Kingdom (99016): wind direction: 09.09.2019 09:00:00 - 15.09.2019 09:00:00 (BST)Kinbrace, United Kingdom (99016): precipitation: 09.09.2019 09:00:00 - 15.09.2019 09:00:00 (BST)
Date & Time tt [°C] td [°C] ff [km/h] ff [kn] dd rr [mm]
15.09.2019 09:00:00 10,1 4,7 - - - -
15.09.2019 08:00:00 9,8 4,9 - - - 0,0
15.09.2019 07:00:00 9,3 3,6 - - - 0,0
15.09.2019 06:00:00 9,5 4,3 - - - 0,0
15.09.2019 05:00:00 9,7 3,3 - - - 0,0
15.09.2019 04:00:00 9,2 2,6 - - - 0,0
15.09.2019 03:00:00 10,1 4,6 - - - 0,0
15.09.2019 02:00:00 10,4 4,6 - - - 0,0
15.09.2019 01:00:00 10,4 3,9 - - - 0,0
15.09.2019 00:00:00 10,9 4,8 - - - 0,0
14.09.2019 23:00:00 11,3 7,4 - - - 0,0
14.09.2019 22:00:00 11,3 6,2 - - - 0,0
14.09.2019 21:00:00 11,4 7,3 - - - 0,0
14.09.2019 20:00:00 11,7 8,5 - - - 0,2
14.09.2019 19:00:00 12,6 8,9 - - - 1,0
14.09.2019 18:00:00 14,0 11,9 - - - 0,2
14.09.2019 17:00:00 15,1 12,5 - - - 0,0
14.09.2019 16:00:00 16,1 13,2 - - - 0,0
14.09.2019 15:00:00 15,9 13,6 - - - 0,2
14.09.2019 14:00:00 14,5 13,3 - - - 0,8
14.09.2019 13:00:00 14,3 13,1 - - - 1,0
14.09.2019 12:00:00 14,4 12,4 - - - 0,2
14.09.2019 11:00:00 13,0 10,8 - - - 0,2
14.09.2019 10:00:00 11,3 9,3 - - - 0,0
14.09.2019 09:00:00 10,7 8,5 - - - 0,2
14.09.2019 08:00:00 11,3 8,2 - - - 0,0
14.09.2019 07:00:00 11,1 7,1 - - - 0,0
14.09.2019 06:00:00 10,8 7,3 - - - 0,0
14.09.2019 05:00:00 11,2 7,3 - - - 0,0
14.09.2019 04:00:00 11,0 7,9 - - - 0,0
14.09.2019 03:00:00 11,0 8,0 - - - 0,0
14.09.2019 02:00:00 11,0 8,3 - - - 0,0
14.09.2019 01:00:00 10,8 9,3 - - - 0,0
14.09.2019 00:00:00 11,3 8,8 - - - 0,0
13.09.2019 23:00:00 11,0 8,8 - - - 0,0
13.09.2019 22:00:00 11,7 8,5 - - - 0,0
13.09.2019 21:00:00 11,6 8,6 - - - 0,0
13.09.2019 20:00:00 11,3 8,4 - - - 0,0
13.09.2019 19:00:00 11,5 9,3 - - - 0,0
13.09.2019 18:00:00 11,3 9,0 - - - 0,0
13.09.2019 17:00:00 14,7 8,6 - - - 0,0
13.09.2019 16:00:00 13,6 9,2 - - - 0,0
13.09.2019 15:00:00 14,6 7,3 - - - 0,0
13.09.2019 14:00:00 14,6 8,1 - - - 0,0
13.09.2019 13:00:00 12,9 8,5 - - - 0,0
13.09.2019 12:00:00 13,7 9,8 - - - 0,8
13.09.2019 11:00:00 12,0 9,9 - - - 0,4
13.09.2019 10:00:00 11,8 7,5 - - - 0,0
13.09.2019 09:00:00 12,0 8,5 - - - 0,0
13.09.2019 08:00:00 10,6 6,9 - - - 0,0
13.09.2019 07:00:00 9,7 6,0 - - - 0,0
13.09.2019 06:00:00 8,5 5,6 - - - 0,0
13.09.2019 05:00:00 8,7 5,6 - - - 0,0
13.09.2019 04:00:00 6,3 4,0 - - - 0,0
13.09.2019 03:00:00 9,7 6,7 - - - 0,0
13.09.2019 02:00:00 9,1 7,2 - - - 0,0
13.09.2019 01:00:00 9,5 7,4 - - - 0,0
13.09.2019 00:00:00 9,4 7,1 - - - 0,2
12.09.2019 23:00:00 10,1 6,7 - - - 0,0
12.09.2019 22:00:00 10,6 6,3 - - - 0,0
12.09.2019 21:00:00 9,9 6,3 - - - 0,0
12.09.2019 20:00:00 9,4 6,6 - - - 0,0
12.09.2019 19:00:00 11,8 6,3 - - - 0,0
12.09.2019 18:00:00 12,1 7,2 - - - 0,0
12.09.2019 17:00:00 14,3 7,3 - - - 0,0
12.09.2019 16:00:00 14,7 7,7 - - - 0,0
12.09.2019 15:00:00 13,9 9,0 - - - 0,0
12.09.2019 14:00:00 12,3 8,6 - - - 0,0
12.09.2019 13:00:00 15,0 9,1 - - - 0,0
12.09.2019 12:00:00 14,3 9,9 - - - 0,0
12.09.2019 11:00:00 12,8 9,2 0 0 N 0,0
12.09.2019 10:00:00 11,0 9,2 0 0 N 0,0
12.09.2019 09:00:00 11,6 8,2 0 0 N 0,0
12.09.2019 08:00:00 10,5 8,0 0 0 N 0,0
12.09.2019 07:00:00 10,3 8,3 0 0 N 0,0
12.09.2019 06:00:00 10,4 8,4 0 0 N 0,0
12.09.2019 05:00:00 10,8 8,8 0 0 N 0,0
12.09.2019 04:00:00 10,9 8,5 0 0 N 0,0
12.09.2019 03:00:00 11,4 8,9 0 0 N 0,0
12.09.2019 02:00:00 11,0 9,2 0 0 N 0,0
12.09.2019 01:00:00 11,3 9,4 0 0 N 0,0
12.09.2019 00:00:00 11,2 9,6 0 0 N 0,0
11.09.2019 23:00:00 11,7 8,5 0 0 N 0,0
11.09.2019 22:00:00 11,7 8,7 0 0 N 0,0
11.09.2019 21:00:00 11,8 9,5 - - - 0,0
11.09.2019 20:00:00 12,2 9,7 - - - 0,0
11.09.2019 19:00:00 13,0 9,5 - - - 0,0
11.09.2019 18:00:00 13,6 9,3 - - - 0,0
11.09.2019 17:00:00 13,6 9,1 - - - 0,0
11.09.2019 16:00:00 14,0 9,6 - - - 0,0
11.09.2019 15:00:00 14,2 9,5 - - - 0,0
11.09.2019 14:00:00 13,4 10,8 - - - 0,0
11.09.2019 13:00:00 - - - - - 0,2
11.09.2019 12:00:00 12,4 10,8 - - - 0,2
11.09.2019 11:00:00 14,0 11,0 - - - 0,2
11.09.2019 10:00:00 12,5 10,0 - - - 0,0
11.09.2019 09:00:00 12,0 9,8 - - - 0,0
11.09.2019 08:00:00 11,7 9,8 - - - 0,2
11.09.2019 07:00:00 11,7 9,1 - - - 0,0
11.09.2019 06:00:00 12,3 10,1 - - - 0,0
11.09.2019 05:00:00 12,1 8,9 - - - 0,0
11.09.2019 04:00:00 11,9 9,3 - - - 0,0
11.09.2019 03:00:00 13,8 11,4 - - - 0,0
11.09.2019 02:00:00 14,5 13,6 - - - 0,6
11.09.2019 01:00:00 14,2 13,1 - - - 0,2
11.09.2019 00:00:00 13,1 11,5 - - - 0,0
10.09.2019 23:00:00 12,8 10,6 - - - 0,0
10.09.2019 22:00:00 11,8 10,0 - - - 0,0
10.09.2019 21:00:00 11,3 9,6 - - - 0,4
10.09.2019 20:00:00 10,9 9,2 - - - 1,4
10.09.2019 19:00:00 11,8 8,5 - - - 0,0
10.09.2019 18:00:00 12,9 7,6 - - - 0,0
10.09.2019 17:00:00 13,3 7,6 - - - 0,0
10.09.2019 16:00:00 14,1 7,6 - - - 0,0
10.09.2019 15:00:00 14,3 8,0 - - - 0,0
10.09.2019 14:00:00 14,2 8,7 - - - 0,0
10.09.2019 13:00:00 13,7 8,1 - - - 0,0
10.09.2019 12:00:00 13,3 7,9 - - - 0,0
10.09.2019 11:00:00 12,5 8,1 - - - 0,0
10.09.2019 10:00:00 11,5 9,3 - - - 0,0
10.09.2019 09:00:00 8,1 8,1 - - - 0,0
10.09.2019 08:00:00 4,3 4,2 - - - 0,0
10.09.2019 07:00:00 2,9 2,7 - - - 0,0
10.09.2019 06:00:00 3,9 3,7 0 0 N 0,0
10.09.2019 05:00:00 4,9 4,5 2 1 NW 0,0
10.09.2019 04:00:00 5,5 4,8 2 1 WNW 0,0
10.09.2019 03:00:00 7,9 7,3 2 1 WNW 0,0
10.09.2019 02:00:00 9,0 8,4 2 1 NNW 0,0
10.09.2019 01:00:00 10,0 9,6 2 1 NNW 0,2
10.09.2019 00:00:00 9,7 9,1 2 1 W 0,0
09.09.2019 23:00:00 10,1 9,3 2 1 SW 0,2
09.09.2019 22:00:00 10,1 9,5 2 1 SSW 0,0
09.09.2019 21:00:00 10,4 9,7 2 1 SSW 0,2
09.09.2019 20:00:00 11,1 10,6 2 1 N 0,0
09.09.2019 19:00:00 11,9 11,3 2 1 ENE 1,0
09.09.2019 18:00:00 13,0 12,0 2 1 NW 0,0
09.09.2019 17:00:00 13,8 12,2 9 5 N 0,0
09.09.2019 16:00:00 13,2 12,0 9 5 NNW 0,0
09.09.2019 15:00:00 13,1 11,7 9 5 NNW 0,0
09.09.2019 14:00:00 13,1 11,8 9 5 NNW 0,0
09.09.2019 13:00:00 12,3 11,4 2 1 NNW 0,0
09.09.2019 12:00:00 12,1 - - - - 0,2
09.09.2019 11:00:00 11,9 11,2 22 12 SE 0,4
09.09.2019 10:00:00 11,7 11,0 22 12 SE 0,4
09.09.2019 09:00:00 11,6 10,9 21 11 SE 0,2

tt = temperature
td = dewpoint
ff = wind speed
dd = wind direction
rr = precipitation

Next stations